Wind_Speed
7 8 8 8 8 8 7 7 7 7 7 7 7 7 8 8 8 9 9 9 10 10 10 11 11 11 12 11 11 10 11 11 10 8 8 7 6 7 9 8 4 8 13 10 8 8 6 4 5 6 5 3 3 1 2 2 2 2 3 2 2 3 4 5 7 7 4 3 5 3 2 2 5 4 2 1 1 4 5 4 5 6 8 11 13 11 7 5
8 8 9 9 8 8 8 7 7 7 7 7 7 7 7 7 8 8 9 9 10 10 10 10 11 11 11 11 10 10 13 12 8 8 8 3 2 6 8 9 5 6 12 12 10 10 7 3 5 6 4 2 2 1 1 1 2 3 3 2 3 5 5 6 7 6 4 4 4 4 2 2 5 3 1 2 5 5 7 8 3 7 13 14 18 18 13 9
9 9 9 9 8 8 8 8 8 7 7 7 7 7 7 8 8 9 9 10 10 10 10 10 11 11 11 10 9 11 12 9 5 5 4 2 2 2 5 8 6 7 12 11 9 9 5 4 9 6 4 1 1 1 1 0 1 2 3 2 6 7 5 5 7 8 7 3 3 6 2 2 5 3 1 2 6 6 9 11 5 8 13 12 13 15 14 12
9 9 9 9 8 8 8 8 9 9 9 8 8 8 7 8 8 9 10 10 11 12 12 11 11 11 11 10 9 10 11 6 2 5 5 2 3 3 3 6 8 8 11 9 6 7 4 6 8 5 3 1 3 2 1 2 2 2 4 5 6 4 3 6 9 9 7 3 4 5 4 6 5 2 2 3 4 8 10 11 10 13 14 11 9 9 11 12
10 10 10 10 9 8 8 8 9 9 10 9 9 9 8 9 9 9 10 10 11 12 13 12 12 12 10 9 8 9 8 5 2 5 4 3 6 4 3 4 9 9 11 9 7 7 6 7 6 5 3 1 1 2 2 4 3 2 4 6 5 4 3 7 7 7 5 3 3 3 5 7 1 1 5 6 5 10 11 9 11 14 12 10 8 6 7 9
11 11 11 10 10 9 9 9 9 9 10 10 10 10 10 10 10 10 10 11 11 11 13 12 12 12 10 8 6 5 4 1 6 5 5 8 7 5 2 4 9 11 12 10 9 9 6 5 4 2 2 1 3 3 4 3 2 3 4 4 5 5 5 5 3 4 5 3 3 4 5 4 2 5 5 10 12 16 16 11 10 11 10 9 6 4 6 9
12 12 11 11 11 10 9 9 10 9 10 10 10 10 10 10 10 11 11 12 11 11 13 12 12 12 10 7 4 2 4 5 12 9 11 11 8 6 3 6 10 12 13 12 11 8 5 5 3 4 3 1 4 5 4 1 1 2 4 4 5 5 7 6 2 3 4 5 7 2 5 8 7 6 2 8 16 19 20 15 9 9 8 8 6 7 9 10
11 12 11 11 11 11 10 10 11 11 10 10 10 10 10 11 11 11 11 12 12 12 13 12 11 11 9 4 1 3 1 10 17 14 14 11 8 6 6 8 11 13 14 15 13 9 6 6 6 4 2 3 4 4 3 1 0 5 7 5 2 3 7 7 3 4 6 7 7 1 7 16 12 4 4 14 20 18 18 16 9 8 8 8 10 12 11 11
11 12 11 11 11 11 10 10 11 11 12 12 12 12 12 12 12 13 12 13 13 13 13 12 11 9 7 1 3 2 5 12 13 10 10 10 9 8 8 9 12 15 14 13 13 12 7 6 7 6 4 4 5 4 3 3 4 7 8 4 3 5 6 5 5 7 7 6 5 4 12 16 8 1 8 20 22 14 12 14 10 6 10 10 11 13 12 11
11 12 11 11 11 11 10 10 11 12 12 12 12 13 13 14 14 15 14 15 14 14 13 12 10 7 5 1 3 4 8 9 8 8 8 9 10 9 10 10 13 16 15 12 13 13 8 8 7 5 4 3 4 4 3 5 4 4 4 5 6 7 7 4 6 7 5 6 7 8 14 14 4 2 8 18 11 4 6 11 8 4 10 11 9 11 9 10
11 11 11 11 11 11 10 11 12 12 12 12 12 13 14 15 15 16 16 16 15 14 13 12 9 6 3 3 3 7 7 6 8 9 10 10 11 10 11 11 13 16 15 11 14 17 11 9 9 6 2 2 3 2 2 5 1 1 1 6 8 7 8 5 6 8 4 5 7 11 10 10 3 2 13 19 4 3 6 10 9 6 10 11 9 9 7 9
10 10 9 9 10 10 10 12 13 13 12 12 13 15 15 15 16 17 17 16 16 15 13 11 7 4 2 2 7 12 11 10 10 10 11 12 11 10 10 10 11 14 14 10 13 19 13 9 12 6 3 4 2 1 4 3 2 1 3 5 9 7 9 8 6 5 5 4 5 9 4 7 5 9 18 18 3 2 6 9 12 9 10 10 9 8 6 9
8 8 8 8 9 10 11 13 14 14 13 13 15 16 15 16 16 17 17 16 16 14 12 9 7 4 2 2 7 12 15 14 13 13 13 13 11 9 9 10 10 12 13 10 8 13 15 12 11 6 2 5 2 2 2 3 2 2 2 1 6 7 8 7 2 1 3 5 6 6 3 5 8 15 19 11 1 1 5 8 11 10 10 8 8 8 8 10
7 7 7 8 9 9 11 14 15 14 14 15 16 16 16 17 17 16 16 15 14 11 9 6 5 5 3 6 8 7 10 13 14 15 15 14 11 7 6 7 9 11 11 9 5 6 13 13 8 3 1 3 1 1 1 4 3 3 2 1 2 2 6 7 1 3 1 4 6 4 5 7 10 15 17 7 2 2 6 10 10 11 10 8 8 7 9 10
7 6 7 8 8 10 12 14 16 15 15 17 17 17 18 17 15 14 13 11 9 6 6 5 6 6 2 7 10 7 8 9 11 13 14 15 11 6 5 7 9 9 8 7 5 5 11 11 6 3 1 1 0 1 3 4 3 2 2 3 1 4 5 9 5 6 6 5 4 5 5 7 10 15 15 5 4 1 6 10 10 12 12 10 9 8 10 11
6 6 7 8 8 10 12 14 17 17 18 18 18 19 17 13 11 11 9 5 2 5 6 6 8 6 1 5 5 4 6 6 7 9 11 13 11 7 7 9 7 7 7 5 6 7 9 7 3 2 1 1 2 2 2 3 4 2 2 5 5 5 4 6 7 6 7 2 1 7 7 6 7 11 11 4 2 4 8 12 13 15 15 13 12 10 12 12
7 7 8 9 9 11 12 14 17 18 19 19 20 19 12 8 8 8 5 4 7 8 7 5 7 4 2 4 3 4 3 3 5 5 7 10 9 10 10 8 6 8 8 5 7 7 4 3 1 1 2 1 2 3 2 2 4 2 2 4 4 5 4 4 7 7 2 4 5 7 8 11 11 10 12 11 9 7 12 18 16 15 14 14 13 12 13 12
8 8 9 10 11 12 13 14 16 18 19 19 20 16 6 5 6 7 8 10 11 9 6 4 5 2 3 4 3 3 1 2 3 2 4 6 9 12 10 6 6 9 8 4 3 2 2 2 2 1 1 1 2 4 2 6 7 6 5 5 4 3 4 4 6 5 6 5 6 4 9 15 14 12 13 15 12 9 13 18 16 14 14 15 14 13 13 12
9 9 9 10 12 12 13 14 16 18 18 19 18 9 3 4 3 7 7 6 6 2 1 1 3 2 3 5 4 3 1 3 3 3 6 9 11 11 8 7 7 7 5 1 1 2 1 2 4 2 3 5 6 7 11 12 9 6 4 4 6 6 5 6 8 6 5 10 10 10 16 17 14 14 12 13 12 10 13 16 16 14 14 14 12 12 13 13
11 11 9 11 12 13 14 15 16 18 18 19 17 6 3 5 3 2 3 1 3 4 2 5 7 3 6 6 2 1 1 2 2 3 8 11 13 11 6 4 5 4 3 4 3 2 3 3 3 5 9 11 11 11 12 9 4 1 2 4 6 7 8 7 10 8 2 5 9 10 19 19 14 14 12 13 13 13 16 17 16 15 15 13 11 15 14 14
13 12 11 12 12 12 14 15 16 17 15 16 14 5 2 1 2 3 5 5 9 9 7 10 10 8 13 8 1 2 1 0 1 3 8 10 11 8 1 2 5 1 2 3 2 1 2 5 7 11 12 8 6 6 6 6 5 4 5 6 6 5 10 10 9 9 1 2 6 6 16 19 15 15 13 14 15 17 19 15 15 17 16 14 13 17 14 11
14 13 12 13 12 12 14 15 16 16 13 13 12 6 3 2 2 3 1 3 9 8 9 12 7 9 16 12 5 1 1 2 2 1 8 8 4 4 1 4 5 3 1 2 1 0 1 5 10 14 8 1 2 3 2 3 5 6 4 5 6 3 8 9 6 7 2 1 6 8 15 16 14 17 18 17 17 17 15 10 12 15 16 16 14 12 10 9
13 12 12 12 12 13 13 14 15 13 11 11 9 5 1 1 3 3 2 1 7 6 6 7 4 6 8 7 5 5 3 6 4 3 9 9 2 3 4 4 4 2 2 4 5 4 3 6 12 13 6 3 3 3 4 1 4 6 4 4 6 3 4 6 4 5 3 3 6 10 15 14 11 15 15 14 13 13 14 11 11 13 16 17 13 8 8 9
12 12 10 10 12 12 12 14 13 9 10 7 6 4 4 3 2 3 1 1 4 6 5 4 4 4 4 3 4 8 4 4 2 3 9 10 4 3 4 5 5 3 5 8 9 9 7 5 5 4 6 8 7 3 2 4 6 6 6 5 8 8 8 9 5 6 6 5 4 7 12 10 4 5 6 5 5 9 11 11 13 14 11 10 10 7 6 8
10 10 8 9 11 9 10 13 8 6 9 4 3 7 6 3 1 2 1 2 3 6 4 2 2 2 2 1 3 6 3 2 2 3 5 7 5 3 2 2 3 3 7 7 8 9 8 4 3 4 4 6 6 5 5 7 7 6 5 10 14 13 10 11 8 7 5 4 3 5 7 7 1 1 4 4 4 6 7 10 15 8 3 4 7 4 7 5
10 8 7 10 11 9 8 7 3 6 8 2 3 8 6 4 2 2 1 3 3 5 2 1 1 1 1 2 1 2 3 0 3 1 2 2 2 3 2 1 1 3 6 4 3 4 4 3 1 3 4 6 5 6 6 8 5 6 5 11 13 11 9 10 7 3 1 3 2 3 1 8 5 1 6 4 2 8 10 12 11 5 5 5 3 6 5 1
14 11 9 10 10 8 5 2 3 6 5 2 5 9 7 5 2 2 1 3 4 2 2 1 1 2 1 1 2 2 2 2 2 2 2 1 0 1 1 2 0 1 3 2 2 3 3 1 4 4 5 6 5 5 7 10 5 6 5 7 9 8 8 6 4 3 3 3 3 1 4 6 9 4 4 2 4 10 13 11 9 5 7 7 6 7 2 2
15 14 12 10 8 6 4 3 4 4 3 4 7 8 8 6 2 1 2 2 4 0 2 1 0 2 1 1 3 3 1 2 2 1 2 1 1 2 0 5 5 4 3 4 3 3 3 2 2 5 5 4 6 5 8 12 6 6 2 5 5 5 4 4 4 4 2 3 4 2 4 3 9 4 2 1 4 8 10 10 10 7 8 6 6 5 4 5
11 12 11 11 8 6 6 5 5 5 6 6 6 7 8 5 2 3 3 2 2 1 1 1 1 1 2 3 4 2 0 2 1 2 3 1 1 3 2 6 7 5 3 4 6 5 1 3 6 7 5 5 7 4 8 12 7 4 5 6 4 3 3 4 3 2 2 3 4 4 4 2 10 5 4 2 2 6 7 7 8 7 5 3 6 3 3 5
8 8 8 8 8 7 5 6 9 8 8 7 5 7 8 4 1 2 3 3 1 1 1 1 1 2 2 3 3 2 0 1 1 2 3 1 2 4 1 3 5 3 2 1 5 6 2 1 3 5 4 5 4 1 3 7 5 4 6 5 5 4 4 3 1 3 1 5 5 9 10 5 6 4 4 3 3 5 4 4 6 7 3 6 7 1 3 4
6 5 6 6 7 7 4 3 7 7 7 7 4 5 6 3 2 2 6 2 1 2 0 1 2 2 3 2 1 1 1 1 1 2 1 1 2 4 1 0 3 2 3 4 5 4 0 2 2 4 3 4 5 3 2 1 3 4 4 3 2 3 3 4 4 3 1 6 5 8 10 8 7 5 1 4 6 5 3 3 5 9 8 3 5 1 4 3
6 5 5 5 7 8 6 3 3 4 7 6 2 3 3 1 1 4 3 2 2 2 1 1 2 2 3 1 1 1 1 1 1 2 3 2 2 2 3 4 3 1 4 2 3 4 1 5 4 3 2 5 5 1 2 3 2 3 3 3 0 3 3 2 3 0 3 6 4 2 3 5 9 6 4 10 13 8 5 6 7 8 10 4 4 4 5 4
7 6 5 6 8 10 10 6 2 4 8 6 1 3 3 2 4 2 1 2 2 1 1 1 0 2 2 1 2 2 0 2 3 3 2 3 2 3 5 5 5 3 4 2 1 3 4 4 1 1 3 4 7 5 3 1 3 4 4 4 3 2 2 3 3 2 4 5 4 1 1 4 7 5 7 13 13 8 3 5 6 6 7 5 3 4 5 6
9 8 6 7 9 10 12 10 5 4 7 7 4 2 2 5 4 2 2 5 3 2 1 2 2 1 1 2 4 3 2 3 3 3 2 3 1 3 5 5 5 3 1 0 1 1 3 7 3 5 2 4 9 7 4 4 4 5 3 3 3 3 4 4 3 4 4 3 3 2 2 4 3 3 5 9 8 6 3 4 4 4 4 2 3 5 6 6
12 11 9 9 10 11 13 14 9 6 9 7 3 3 6 5 2 1 4 5 3 3 3 0 1 3 2 3 4 2 4 4 1 3 3 3 3 3 3 4 5 5 3 1 2 2 3 8 6 3 1 7 8 4 5 5 2 3 3 3 2 4 4 3 3 4 2 2 3 2 3 5 4 6 10 8 7 6 5 4 3 4 4 5 5 6 6 7
12 11 11 11 12 13 14 15 12 11 10 6 1 6 7 5 3 3 4 2 2 2 2 3 1 2 4 2 2 2 2 3 0 1 2 3 3 4 4 3 6 9 7 4 3 2 2 6 4 1 1 5 8 4 4 3 3 1 2 3 4 3 4 2 3 1 2 3 4 3 5 7 6 10 9 2 2 4 6 5 4 4 6 8 6 7 7 8
9 7 7 10 14 15 14 15 16 15 9 3 4 8 5 4 5 5 3 2 1 3 2 3 3 3 3 3 2 2 1 2 1 1 2 2 3 4 5 4 5 11 10 4 2 4 4 6 4 4 4 4 3 3 1 1 4 5 3 4 3 2 2 1 1 1 1 6 5 3 8 9 6 7 5 5 3 4 6 6 5 6 7 9 8 8 10 10
6 3 5 10 15 15 14 17 19 15 6 2 8 10 4 3 5 4 4 2 0 1 2 3 4 2 3 4 3 2 3 3 1 2 3 3 3 4 5 4 3 7 7 2 0 3 2 5 6 4 6 3 3 2 1 3 2 4 3 2 2 2 3 1 2 2 4 6 4 4 9 9 6 7 8 7 6 1 3 6 8 10 10 10 10 11 11 11
2 0 2 5 9 13 17 20 19 10 3 4 10 9 5 4 4 4 4 2 1 1 2 5 4 2 3 4 3 3 3 4 3 2 3 3 4 4 4 3 2 2 2 2 3 2 1 4 5 0 2 1 3 1 4 3 1 1 1 2 1 3 3 2 2 2 3 6 5 5 7 6 5 8 11 11 5 1 4 7 9 10 11 10 10 10 10 10
1 1 2 2 2 12 19 20 14 5 4 6 8 6 2 2 3 2 4 4 2 2 3 4 4 4 5 3 4 3 2 4 4 3 3 3 4 4 3 3 3 2 1 2 1 1 1 4 6 1 1 1 2 4 6 7 4 2 1 3 2 2 1 2 2 2 4 7 7 7 8 6 5 5 7 5 3 6 6 7 7 8 10 9 8 7 7 7
1 1 1 4 2 16 20 13 6 4 4 6 7 6 3 2 2 2 2 4 3 2 2 3 5 5 5 4 3 2 1 3 4 4 4 4 4 5 3 4 5 4 2 3 0 2 1 3 6 4 3 4 6 6 6 8 6 5 5 5 6 5 3 4 6 5 5 6 6 8 10 7 3 4 6 4 6 7 6 7 7 7 7 6 6 6 6 6
1 1 1 2 9 21 16 5 4 3 4 5 4 4 2 1 2 2 1 1 2 2 1 1 4 4 4 5 5 4 3 4 4 4 5 5 7 7 3 1 4 4 3 2 3 3 3 1 3 6 6 7 9 6 4 5 3 2 3 4 5 5 5 6 8 5 4 5 4 7 9 5 3 6 8 6 8 7 7 8 8 6 5 6 6 6 6 6
1 1 2 2 16 22 10 3 5 3 3 3 2 2 2 1 2 2 1 0 2 2 1 1 3 4 5 6 6 5 4 4 6 8 7 5 7 5 4 5 3 2 1 2 3 1 2 2 3 7 5 5 8 7 0 3 1 2 3 4 4 4 5 6 6 3 4 6 5 7 9 3 2 5 3 8 9 7 8 8 7 5 6 7 7 7 7 7
1 1 2 0 10 13 6 4 5 5 5 4 4 5 4 2 3 4 3 2 2 2 1 1 3 4 3 3 2 3 4 3 6 8 5 3 4 2 7 8 5 2 0 1 2 2 1 1 2 3 4 3 5 5 3 2 0 2 4 4 4 5 7 6 4 2 4 7 9 11 9 4 1 1 6 10 7 7 8 7 6 6 6 6 7 8 8 8
2 1 3 4 2 2 3 2 2 4 5 5 6 7 6 5 4 5 5 4 4 3 2 2 2 1 2 2 1 2 4 4 3 4 2 2 4 2 5 7 6 2 1 1 1 0 1 2 1 2 4 5 5 5 2 0 1 1 2 3 2 4 6 6 5 5 5 7 10 10 9 6 5 3 5 7 6 6 6 5 5 5 4 5 5 6 7 8
1 0 2 3 3 2 1 1 1 3 4 4 6 6 8 9 5 2 5 6 6 5 4 5 2 2 1 3 3 6 5 6 5 3 2 2 3 2 2 3 4 1 2 2 3 1 0 2 4 5 7 7 7 7 3 2 2 2 4 6 5 4 5 4 5 6 6 8 10 10 11 11 9 7 6 4 4 4 3 4 4 4 4 4 4 4 4 4
1 1 1 0 1 1 1 1 1 2 1 1 2 4 7 9 7 3 3 3 3 2 4 4 3 4 5 4 5 6 6 6 6 5 5 5 3 3 3 2 4 3 1 1 2 2 2 4 6 9 11 9 9 9 6 4 4 5 6 8 8 7 7 8 10 10 8 8 7 7 9 10 8 7 6 3 2 2 3 3 2 2 2 3 3 4 4 4
1 1 1 0 0 1 2 1 1 2 2 1 1 3 4 5 5 4 1 1 2 1 1 2 3 5 7 6 5 3 3 4 4 3 4 3 2 4 4 1 2 5 4 1 2 2 2 5 7 9 11 9 9 8 5 4 5 5 6 7 7 9 11 13 15 12 9 9 9 8 11 15 14 8 4 2 1 2 3 2 2 1 2 2 2 3 4 5
1 0 2 2 1 0 1 1 3 3 3 2 1 4 5 5 6 4 1 2 3 2 1 4 3 2 3 4 3 2 3 5 6 5 2 1 1 1 3 2 1 4 6 4 4 0 2 4 4 4 7 6 7 8 6 5 6 7 7 7 9 12 15 15 15 14 13 15 16 16 19 20 13 4 4 3 1 2 3 3 3 3 3 2 2 1 1 3
1 1 1 2 2 0 1 1 2 2 3 2 3 5 4 6 8 4 1 2 4 2 1 2 5 6 4 3 2 2 3 3 6 5 0 1 1 1 1 2 1 4 5 2 3 3 2 3 3 2 4 6 7 8 8 7 8 9 9 10 13 16 17 16 16 16 16 17 17 17 19 15 5 3 4 2 1 2 3 3 4 3 3 3 3 2 2 3
2 1 2 2 1 1 1 1 1 1 2 2 4 4 3 4 4 2 1 0 1 0 2 3 4 5 2 2 2 2 2 3 2 2 2 1 2 1 1 1 1 4 4 1 1 3 3 3 4 4 5 6 7 10 9 8 9 11 11 14 19 19 16 15 15 15 14 14 15 14 12 7 2 3 1 2 2 2 3 4 4 4 4 4 4 3 3 4
3 1 2 4 1 1 2 1 1 2 2 2 2 2 1 0 2 2 1 1 3 4 5 4 2 3 2 4 2 2 1 0 1 2 1 3 4 3 4 4 4 3 2 1 2 2 2 3 3 4 5 6 8 8 5 6 8 11 11 14 18 18 16 15 15 15 12 8 9 10 6 2 3 2 1 1 3 3 3 4 4 4 5 5 5 5 4 4
Wind_Direction
2 3 2 5 4 5 5 1 1 359 1 357 354 354 351 351 347 346 344 344 345 345 346 345 349 355 357 359 354 346 335 320 306 282 255 271 267 244 250 263 259 212 207 199 185 169 140 126 149 139 133 96 17 338 14 11 88 68 90 125 223 203 203 188 189 199 191 251 262 270 170 171 294 295 288 318 321 283 277 263 262 274 256 244 253 263 268 257
355 356 358 359 356 357 355 353 352 349 351 350 349 347 346 345 339 337 334 334 336 335 339 339 341 346 351 356 352 346 334 321 305 273 258 271 233 238 247 246 244 210 198 195 195 178 149 170 167 119 88 78 353 352 14 326 102 97 122 157 228 206 213 197 187 196 205 232 253 269 225 200 258 266 16 276 283 309 291 275 253 269 265 259 258 254 250 236
353 354 355 353 351 352 349 345 341 338 340 340 339 338 337 336 332 329 325 326 327 327 330 331 333 337 346 351 352 348 332 323 307 254 217 105 69 274 254 235 224 199 195 198 202 192 172 174 161 116 62 86 320 22 50 217 169 158 139 198 240 217 229 230 209 210 220 234 282 284 279 230 243 230 144 240 280 291 266 267 252 254 261 259 255 245 236 225
348 349 349 346 346 347 345 341 336 333 332 329 328 325 324 324 322 319 318 320 322 322 322 324 327 329 339 345 351 346 335 338 291 197 157 88 18 357 282 230 209 195 197 195 186 192 171 139 138 92 77 144 323 9 166 224 200 177 155 204 230 196 234 239 218 222 230 227 249 280 325 290 257 183 181 174 291 281 253 250 237 241 251 253 257 241 221 214
344 343 342 339 341 340 337 334 332 331 327 325 323 319 317 316 313 311 311 312 314 314 313 316 317 319 327 332 343 345 356 11 269 197 175 324 339 332 306 219 202 194 192 186 161 155 142 128 109 58 78 159 320 39 231 220 143 177 207 224 216 162 240 243 212 224 213 175 228 274 301 282 282 175 193 169 225 260 257 241 225 232 238 243 253 230 206 209
343 340 340 338 338 335 333 330 328 328 325 324 319 318 317 313 311 309 306 306 308 306 305 307 309 312 317 321 326 340 40 353 259 231 268 301 313 309 295 200 193 189 188 177 150 139 124 105 95 98 87 42 198 193 241 225 135 232 246 250 235 193 232 248 186 206 177 158 224 228 281 294 335 289 204 175 219 248 260 251 231 238 232 238 248 197 197 214
340 338 339 340 336 331 333 330 328 329 327 324 318 318 315 311 310 307 306 304 304 304 302 305 309 309 312 320 310 345 101 238 265 270 284 290 287 283 232 195 188 188 188 170 150 141 117 109 147 158 109 345 217 210 234 207 120 248 258 255 248 210 224 244 196 199 192 220 240 227 320 290 264 281 229 199 228 244 260 261 250 258 248 242 246 225 224 224
338 337 338 339 334 333 335 331 334 336 334 331 326 323 316 312 309 305 305 301 301 303 301 306 312 314 317 320 245 352 114 251 272 279 279 276 267 253 206 190 186 190 188 183 171 156 140 145 177 159 140 240 198 184 194 148 149 219 234 241 245 227 237 257 259 243 242 243 243 234 282 268 255 252 277 257 249 246 258 270 267 267 267 248 244 245 242 236
338 335 338 336 333 336 336 334 341 342 339 337 332 327 320 315 310 306 302 298 300 299 301 308 313 317 314 338 106 334 258 260 275 274 268 260 252 230 203 192 189 192 186 192 186 166 163 174 195 188 191 207 173 183 178 180 240 215 221 253 270 273 272 279 268 242 246 243 190 184 253 264 271 218 257 259 255 256 260 271 274 268 266 251 244 247 242 241
337 336 337 335 337 341 342 344 347 345 341 338 334 329 321 316 310 304 299 297 297 295 299 302 309 316 296 130 98 274 263 265 261 249 252 246 242 222 207 202 196 196 185 184 184 174 179 193 188 166 162 155 168 189 157 175 215 190 200 274 263 275 287 262 262 250 247 260 191 193 251 264 294 63 261 258 245 234 255 268 275 257 260 255 246 247 242 242
338 338 338 341 348 349 353 354 351 349 344 341 338 331 323 317 309 302 298 294 291 290 292 293 301 306 266 147 177 254 262 257 244 242 244 242 243 227 217 217 207 201 187 176 191 193 195 188 154 112 153 184 165 177 216 204 173 110 126 301 279 297 297 232 248 261 230 267 203 187 250 279 312 144 246 259 236 153 251 274 278 254 258 262 254 252 244 241
339 336 340 351 357 358 2 359 356 354 348 346 339 332 325 316 307 301 296 292 288 285 282 283 285 269 253 168 223 249 260 255 248 246 245 243 240 227 221 222 215 212 200 187 204 206 203 178 146 137 217 168 133 214 240 223 67 25 61 317 294 333 308 247 239 255 186 227 181 156 252 288 253 224 244 260 255 187 255 272 276 264 257 264 263 259 248 244
342 344 351 1 4 6 7 4 2 358 353 348 339 333 326 315 307 300 295 291 286 282 275 271 263 228 205 261 247 255 260 255 251 250 248 244 238 230 222 217 212 216 216 211 214 208 205 192 164 173 194 142 202 228 148 57 51 301 55 322 299 337 306 267 228 76 164 210 166 146 263 260 239 246 254 264 122 193 268 264 270 273 266 265 264 264 259 251
350 356 3 6 7 8 8 8 6 1 357 348 341 336 326 316 308 300 298 292 283 275 264 250 225 177 159 257 266 274 262 254 251 246 246 241 229 219 212 207 203 204 214 216 215 201 201 196 162 140 165 152 229 276 4 9 17 300 301 213 319 293 281 299 270 124 267 233 154 160 259 249 253 260 260 275 74 188 264 269 270 273 273 271 264 264 268 259
356 1 5 4 3 4 5 6 4 2 357 350 344 337 327 318 312 310 308 296 282 249 219 185 173 152 102 275 270 274 259 253 252 248 247 238 219 201 187 186 190 190 193 196 192 181 179 171 142 134 249 281 90 293 311 345 11 10 284 276 285 212 265 308 283 192 239 275 126 168 241 256 256 262 267 302 44 191 253 268 272 274 275 275 273 266 266 265
351 355 356 355 355 358 358 359 1 359 355 353 346 337 329 325 325 325 321 304 248 175 165 165 171 154 35 277 269 272 255 246 251 251 240 228 219 200 161 155 158 159 161 160 148 143 145 135 114 149 147 290 178 176 353 357 330 334 229 253 252 239 280 321 294 248 228 231 193 219 239 269 256 262 277 297 317 290 278 275 273 274 277 275 274 267 262 266
342 343 343 344 345 350 351 354 357 355 355 354 345 338 334 340 349 351 5 97 123 126 123 147 164 151 272 256 268 277 262 233 235 239 223 215 208 184 152 128 121 127 120 111 123 121 102 90 36 340 59 27 141 112 20 302 273 279 226 241 243 245 272 309 291 298 304 170 209 240 242 255 261 275 290 285 280 287 282 279 275 272 277 274 270 268 266 266
330 331 334 338 340 343 346 351 355 353 354 355 346 339 345 5 25 59 80 106 112 106 95 104 131 119 272 247 260 269 70 151 188 170 185 178 173 175 158 127 124 119 96 67 102 107 11 27 73 30 357 310 135 119 201 235 235 239 236 253 280 264 249 257 260 299 330 259 234 279 262 256 265 273 279 280 278 268 264 274 277 273 272 270 271 271 271 271
320 322 329 336 338 338 342 349 353 352 353 358 352 345 30 17 53 90 81 97 106 103 96 189 161 150 257 261 275 282 93 126 142 135 146 145 154 159 135 116 114 109 106 82 251 183 121 61 74 111 219 224 206 183 208 229 235 234 226 246 281 285 252 237 249 261 296 284 275 276 273 270 273 272 274 276 274 266 263 270 274 274 271 270 275 273 271 269
316 320 326 334 336 335 342 347 351 352 354 0 358 356 50 15 22 31 337 325 212 237 260 224 207 225 275 281 297 210 180 151 137 142 146 147 149 137 102 85 81 77 133 159 198 200 132 151 166 199 215 218 216 210 223 248 307 334 250 263 262 271 273 259 266 267 208 278 271 258 273 279 279 278 277 276 279 273 264 264 269 274 275 275 273 270 269 266
310 318 323 326 328 334 343 345 348 352 355 4 10 25 108 67 28 321 308 295 257 244 249 238 219 240 257 260 227 139 130 306 55 104 147 152 146 143 124 81 109 152 235 158 168 50 117 185 212 222 221 218 224 230 248 277 316 287 256 277 269 250 271 268 269 281 248 244 262 248 273 279 280 279 271 267 269 264 260 262 271 273 275 277 271 269 273 275
304 314 319 320 324 334 342 344 344 348 354 12 33 70 135 184 226 252 255 304 279 247 238 247 236 250 255 260 263 180 50 280 311 48 158 146 129 182 185 89 137 195 228 133 145 5 189 218 233 234 230 276 17 67 90 241 251 256 249 282 282 253 277 274 261 292 342 215 275 287 281 280 277 270 260 250 249 259 267 262 262 268 272 272 269 277 291 308
292 298 307 314 323 329 337 341 338 342 357 18 46 83 85 310 228 213 140 265 290 272 236 240 224 238 259 277 247 185 207 240 263 271 178 147 101 195 142 122 157 155 157 191 202 208 223 238 238 236 218 214 266 83 91 291 255 231 224 267 276 260 279 273 262 319 341 242 276 297 289 284 271 262 258 254 249 259 271 265 256 257 259 265 278 303 326 341
278 282 288 297 308 316 328 333 331 342 356 15 45 41 19 353 209 181 125 225 285 285 252 215 192 210 241 271 193 171 199 219 216 253 184 156 142 162 154 156 149 146 204 208 212 224 237 231 215 204 180 196 232 228 161 263 264 229 209 231 261 259 249 251 276 335 329 286 299 316 301 293 265 257 273 290 274 256 265 270 261 254 253 271 293 313 6 17
277 280 283 288 298 309 322 325 326 345 345 359 36 6 19 22 229 175 2 0 298 293 283 195 179 207 204 144 155 172 172 186 243 266 187 166 151 141 179 165 142 203 215 207 222 246 256 236 147 126 156 172 200 231 210 215 251 267 217 213 238 254 253 257 288 347 349 313 344 6 324 301 6 87 278 301 329 283 261 248 251 269 338 304 292 343 45 26
277 281 285 285 292 302 312 318 323 341 340 340 359 352 6 11 322 196 66 32 300 284 312 191 184 151 171 74 39 174 126 271 285 350 117 164 155 131 154 167 85 220 201 184 214 249 260 270 143 146 136 128 164 237 223 191 231 285 237 209 224 242 252 259 279 332 308 258 295 58 19 285 286 219 254 263 332 282 259 244 258 328 343 291 332 42 58 305
271 275 275 275 282 288 288 290 307 324 333 321 341 346 347 351 338 244 8 19 301 256 107 308 338 81 187 344 358 134 144 292 336 40 71 93 288 92 139 230 280 253 177 138 303 248 210 355 46 98 108 123 170 241 216 169 180 263 233 189 201 223 234 229 221 225 237 277 314 100 145 274 284 257 253 189 172 253 261 264 285 316 294 302 37 55 34 314
265 269 268 270 278 273 253 248 288 303 290 300 326 333 337 340 310 17 48 339 291 220 90 304 114 77 350 11 41 94 192 316 68 324 336 80 242 72 146 224 185 202 183 142 251 256 148 159 162 134 111 159 201 222 184 158 182 252 195 145 174 203 207 166 164 204 265 345 313 251 149 254 279 275 25 82 193 250 268 274 283 282 284 325 47 50 0 335
265 265 264 264 264 256 250 248 248 259 275 293 315 322 331 321 301 59 85 240 296 60 57 3 129 5 350 28 21 54 23 359 107 273 335 72 258 71 164 212 160 191 224 163 230 256 186 208 187 149 141 210 219 218 177 165 194 228 116 93 71 65 66 90 132 136 53 315 253 213 167 237 280 281 89 69 259 260 263 269 275 266 268 35 62 40 339 331
275 273 268 257 246 244 242 241 245 254 271 276 292 316 324 318 23 71 227 239 0 307 246 90 194 321 34 66 350 336 232 301 346 350 7 75 342 31 120 192 111 130 272 314 256 251 240 159 157 162 187 203 177 120 186 172 170 136 105 68 41 40 39 48 36 90 58 285 228 192 184 185 283 291 134 186 231 219 239 298 307 299 329 77 98 204 303 335
287 283 271 246 234 233 219 240 258 252 248 249 272 325 333 343 82 188 237 236 28 286 27 53 306 25 78 116 296 313 140 270 315 85 82 111 33 31 37 229 83 72 355 334 282 274 44 136 219 235 200 144 115 77 1 68 114 107 92 66 32 346 12 26 353 49 169 262 238 198 187 179 234 262 334 278 259 224 227 301 305 303 312 53 103 281 321 347
287 278 266 242 226 220 215 252 280 233 219 223 260 9 28 356 240 211 243 351 340 272 133 213 272 103 112 98 263 234 152 225 207 149 156 139 141 165 191 196 169 325 321 279 271 318 283 208 234 279 210 147 127 135 347 18 66 109 109 120 226 309 342 346 311 77 218 256 275 237 185 208 241 259 292 279 278 268 225 230 254 276 292 325 42 339 337 357
280 274 260 244 229 220 221 227 223 195 196 180 95 44 86 204 242 179 172 264 250 249 103 128 341 122 124 5 283 229 202 204 189 189 168 135 175 234 239 218 177 210 264 226 294 328 291 260 197 175 258 174 154 181 235 247 169 161 158 159 166 196 246 260 254 258 265 273 308 316 189 266 282 281 247 248 269 288 224 225 248 251 270 296 333 333 352 357
275 272 257 243 232 226 224 217 203 178 166 139 87 55 183 224 238 114 183 235 258 319 336 118 59 23 135 241 250 204 236 256 164 160 177 125 168 254 258 244 193 163 167 186 308 191 253 285 212 178 232 168 179 196 170 137 164 183 166 138 162 179 193 224 224 239 260 274 308 300 194 232 263 284 251 236 257 289 275 265 272 261 271 312 357 3 11 -0
278 268 261 250 232 224 218 213 212 186 156 128 93 211 227 234 245 209 221 232 269 302 303 151 65 326 282 240 262 231 226 253 109 123 186 176 199 223 226 223 189 153 128 180 257 159 214 265 245 216 137 150 181 198 122 115 165 206 126 114 222 206 177 226 235 204 207 288 285 251 225 236 242 284 282 264 269 293 304 325 348 347 12 56 46 24 19 9
286 271 262 250 235 224 212 207 205 188 164 132 144 224 232 229 197 208 214 198 187 186 311 314 207 266 279 255 295 313 211 222 180 131 213 214 228 226 225 230 186 173 173 181 209 181 231 265 259 20 358 179 184 177 139 156 193 161 126 188 225 175 146 236 274 144 99 266 251 205 251 277 294 293 294 321 57 6 1 0 360 360 39 60 45 32 33 26
299 276 251 241 238 226 210 204 194 182 168 139 217 227 231 219 202 200 189 154 174 134 105 281 224 191 252 267 279 292 193 225 214 177 224 241 243 207 208 252 201 188 198 193 215 221 232 267 248 163 220 243 177 139 109 196 163 140 178 216 198 133 135 152 267 338 225 246 246 223 252 273 287 285 322 52 73 35 15 1 355 3 31 42 37 45 49 40
306 284 250 248 242 225 207 199 186 175 158 171 230 235 223 212 216 199 175 148 334 75 122 237 239 203 227 247 255 218 180 209 201 182 213 235 240 183 169 238 207 191 215 179 271 255 215 261 268 187 200 226 71 98 281 292 185 153 205 232 127 181 227 158 171 236 241 247 256 225 240 255 254 253 278 286 266 274 14 5 16 23 25 26 29 38 42 40
294 291 279 266 239 218 201 188 177 169 167 201 228 237 218 220 229 191 179 162 99 188 223 239 236 248 250 220 224 237 196 191 189 207 216 217 238 199 162 217 207 183 254 151 185 247 150 238 269 14 182 171 74 160 206 232 267 81 322 302 108 179 214 200 175 169 234 255 259 233 230 234 231 245 268 279 278 27 21 16 27 35 34 28 29 29 30 36
165 120 287 335 223 198 186 176 172 179 207 213 227 230 192 229 244 196 195 204 205 211 232 235 213 236 259 228 219 249 229 200 196 209 225 221 251 248 199 202 175 145 18 69 200 240 80 243 248 297 3 205 187 206 190 188 195 162 215 243 223 204 222 272 232 175 224 252 259 257 248 235 229 249 270 288 25 44 36 47 52 48 47 38 33 33 30 39
135 90 287 352 131 169 167 167 185 200 207 227 240 238 239 258 261 272 226 201 211 236 229 210 210 234 268 271 253 243 224 229 215 214 239 239 248 261 238 187 167 154 97 63 249 222 188 243 238 235 250 227 225 221 191 190 193 187 199 210 218 223 237 270 250 206 209 238 244 256 258 248 242 283 297 337 57 53 46 67 66 51 51 46 36 38 37 42
148 142 297 13 156 163 160 175 210 189 211 229 236 234 242 288 258 244 244 163 194 237 289 223 220 233 253 257 253 237 232 242 224 227 251 239 230 243 262 150 142 138 128 150 222 214 167 159 239 239 236 240 252 246 188 184 197 211 218 208 214 211 196 233 249 234 227 242 240 257 263 246 216 266 303 9 61 60 40 52 59 46 43 43 38 34 31 34
159 217 334 109 167 170 168 208 206 201 232 244 289 262 214 281 268 232 191 128 195 221 259 249 234 234 236 245 246 239 239 232 222 233 247 245 239 253 345 11 26 57 10 281 284 285 124 135 232 248 256 277 279 277 337 93 118 243 245 214 206 218 216 235 254 249 241 247 249 259 262 241 207 258 347 61 72 63 46 45 47 36 28 29 26 26 26 24
20 280 313 317 178 183 193 210 207 217 230 247 268 257 242 228 240 252 254 215 188 197 215 260 262 254 253 267 259 236 238 236 241 249 251 252 264 330 31 21 20 40 356 289 295 313 328 200 217 247 266 291 290 285 324 28 123 224 237 228 222 242 261 279 291 272 246 240 240 254 260 248 250 338 74 81 74 58 53 48 45 38 26 19 15 18 17 14
17 293 286 309 291 222 218 198 196 220 227 246 251 253 260 251 234 242 247 245 223 194 210 261 241 212 263 295 294 249 218 199 241 283 296 264 275 334 27 25 41 75 158 108 93 0 328 291 254 258 250 246 260 263 243 217 250 232 272 281 267 234 246 269 276 261 250 235 233 248 263 259 265 315 49 72 79 75 58 45 50 44 25 19 16 12 11 14
58 44 306 315 343 6 212 136 48 232 227 242 247 245 246 250 263 217 205 245 247 205 214 246 197 140 245 243 250 267 249 207 212 250 263 255 266 290 351 47 68 93 194 88 52 69 158 270 255 255 258 258 271 278 292 341 283 254 283 297 299 277 251 257 256 246 258 262 248 247 260 265 270 286 318 10 68 97 87 58 56 43 22 18 11 9 18 23
97 180 180 287 328 321 249 277 332 265 258 233 243 250 237 242 265 263 199 239 266 207 220 238 197 195 227 231 242 260 256 232 220 223 236 241 253 296 319 95 75 12 304 136 27 85 171 252 250 251 258 261 269 279 294 306 274 259 274 279 280 282 272 261 256 255 272 281 262 252 269 278 279 279 285 311 8 85 102 91 78 61 9 354 349 359 12 11
66 177 197 89 301 236 227 258 345 303 272 231 246 286 263 236 243 251 240 283 302 345 283 249 219 216 232 253 261 257 266 261 245 226 237 256 287 321 334 43 63 18 27 8 349 104 168 263 263 264 273 275 281 290 298 296 280 272 275 271 271 272 262 256 258 262 268 267 268 284 288 282 281 275 243 219 260 127 123 131 150 189 256 295 329 352 0 352
43 21 317 7 51 175 265 352 17 349 284 258 258 261 255 250 249 247 13 335 304 334 282 257 280 326 319 301 283 239 259 273 267 251 223 252 263 267 313 304 320 34 44 20 328 85 174 262 266 272 285 284 285 291 297 300 295 286 278 275 274 269 263 264 268 268 264 262 268 276 273 272 275 252 161 152 183 168 157 178 203 215 239 245 258 296 311 305
35 45 344 27 37 51 14 1 27 359 298 267 248 252 252 259 266 278 28 304 280 296 287 283 328 359 9 352 334 273 278 297 286 278 146 100 256 183 252 249 266 1 16 21 312 305 278 287 324 2 305 282 278 283 289 297 296 290 288 281 272 267 266 269 272 270 266 266 267 267 265 266 266 127 143 151 161 203 192 203 220 221 228 243 258 272 268 270
76 60 106 78 0 197 118 64 97 138 261 226 218 251 268 256 269 318 42 304 294 316 97 73 357 354 7 345 355 338 349 29 3 330 33 15 286 338 328 258 21 348 340 354 314 317 303 306 347 349 293 273 279 288 296 313 308 293 283 273 266 264 262 260 259 260 263 267 271 270 268 264 178 117 123 154 164 235 233 227 233 220 216 234 251 267 273 273
106 40 97 104 6 266 140 122 139 174 227 228 216 268 275 115 13 13 231 81 77 104 103 88 9 357 345 306 323 122 165 226 190 237 260 242 248 250 243 250 258 261 267 298 308 286 259 281 306 295 280 278 282 288 326 353 311 283 266 258 258 260 261 258 258 261 260 261 267 267 265 232 162 147 133 181 196 235 246 248 251 234 221 227 238 256 266 262
Height
834 834 833 833 833 833 832 832 832 831 831 831 831 830 830 830 829 829 828 827 827 826 826 826 825 825 824 823 823 822 821 820 819 820 819 815 814 815 815 815 816 816 817 818 819 820 821 822 822 823 823 825 829 829 829 830 831 832 838 845 845 847 845 837 835 834 828 822 819 819 822 823 819 818 817 816 816 813 811 810 808 806 801 798 796 795 796 796
834 833 833 833 832 832 832 831 831 830 830 830 830 829 829 829 828 828 827 827 826 826 826 825 825 824 824 823 822 821 820 819 819 818 815 814 814 813 814 814 815 815 816 817 818 819 820 822 822 822 824 826 830 830 830 831 830 834 843 847 842 838 834 828 825 825 825 820 817 818 822 824 819 817 817 815 814 814 811 806 806 804 798 796 794 794 795 795
833 833 833 832 832 831 831 831 830 830 829 829 829 828 828 828 827 827 826 826 825 825 825 824 824 823 823 823 822 822 820 819 818 816 813 813 813 813 813 813 814 815 816 816 817 818 819 820 820 822 825 827 831 831 830 830 831 834 841 843 834 828 827 827 824 821 820 819 818 818 821 822 818 817 817 815 814 813 810 803 802 802 795 792 791 791 792 794
833 832 832 831 831 831 830 830 829 829 829 828 828 827 827 827 826 826 825 825 824 824 824 823 823 822 823 822 822 821 818 819 817 812 812 812 812 812 812 812 813 814 815 816 817 818 818 819 820 823 825 828 832 833 830 829 831 835 837 832 826 827 826 822 820 819 821 823 821 819 821 819 815 818 816 815 817 811 803 797 796 795 790 788 788 789 791 792
832 832 831 831 830 830 829 829 828 828 828 827 827 826 826 826 825 825 824 824 823 823 822 822 822 822 822 821 822 820 820 825 817 810 811 811 811 811 811 811 812 813 815 816 817 818 818 819 821 824 826 828 832 831 829 829 830 832 830 822 822 828 824 815 817 819 821 823 822 821 820 814 814 816 813 814 816 804 791 789 789 787 786 786 786 787 789 790
832 831 831 830 830 829 828 828 827 827 826 826 826 825 825 825 824 824 824 823 823 822 821 822 821 821 821 820 822 819 824 827 814 808 811 810 810 811 810 811 811 812 814 815 816 817 818 821 822 825 827 828 830 828 827 830 831 828 825 822 821 824 821 815 816 818 820 821 819 818 816 814 815 812 809 811 807 792 781 783 784 783 784 784 784 786 786 787
831 831 830 829 829 828 828 827 826 826 826 825 825 824 824 823 823 823 822 822 822 821 821 821 820 820 820 820 820 819 824 821 808 808 810 809 810 809 809 810 810 811 812 814 815 817 819 821 822 826 828 828 829 827 827 829 831 829 825 822 820 821 820 815 816 818 819 818 815 817 817 812 812 811 809 805 796 785 778 778 782 782 783 784 784 783 782 782
831 830 830 829 828 828 827 826 826 826 825 825 824 824 823 822 822 821 821 821 820 820 820 820 820 819 819 819 819 821 823 814 806 808 807 807 808 808 809 809 809 811 811 812 813 815 817 820 821 825 826 825 827 826 827 828 829 830 824 819 820 820 817 815 818 818 817 816 815 819 815 805 805 809 806 796 786 781 779 777 780 782 781 783 781 778 778 778
831 830 829 829 828 827 827 826 825 825 824 824 823 823 822 821 821 820 820 819 819 819 818 818 818 818 819 818 820 823 817 807 805 806 805 806 806 806 807 807 808 809 810 811 812 813 816 818 819 820 820 822 825 825 826 827 825 823 819 818 819 817 815 815 816 814 815 812 813 816 810 801 802 807 800 784 776 777 779 777 778 780 779 777 777 775 774 774
830 829 829 828 827 827 826 826 825 824 824 823 822 822 821 820 819 819 818 818 817 817 817 817 817 817 818 816 821 821 808 803 805 804 805 805 804 805 805 806 807 807 809 810 811 812 813 814 815 816 818 822 824 825 826 825 822 820 821 820 817 817 817 816 813 811 813 809 808 811 805 800 802 809 796 772 770 777 777 776 775 778 775 772 773 772 772 772
830 829 829 828 827 827 826 825 825 824 823 822 822 821 820 819 818 817 816 816 816 816 816 816 816 816 816 816 820 814 802 802 804 803 804 804 803 804 804 806 806 806 807 809 810 810 810 811 813 816 819 821 823 827 826 822 821 821 822 819 816 817 815 814 812 809 811 806 803 807 806 802 804 807 789 767 770 776 774 773 773 774 771 768 769 769 770 769
829 829 828 827 827 826 826 825 824 824 823 822 821 819 818 817 816 815 814 814 814 814 814 814 815 815 815 816 813 805 800 802 802 802 803 802 803 804 804 805 805 806 806 808 809 808 810 811 812 815 817 820 823 825 823 820 823 822 824 822 816 816 811 805 805 805 808 803 799 805 808 803 799 792 774 766 771 774 775 773 769 769 768 766 766 765 766 764
829 828 828 827 827 826 825 825 824 823 822 821 820 818 817 815 814 813 812 812 812 812 812 812 813 813 816 813 803 798 799 800 800 801 802 801 802 802 803 804 805 806 806 807 808 808 810 811 811 814 816 819 821 821 819 822 824 822 824 825 820 821 812 800 802 806 806 802 798 802 805 797 787 778 767 767 773 773 774 771 768 766 763 764 763 762 761 759
828 828 827 827 826 826 825 824 823 822 821 820 818 817 815 813 812 811 810 810 809 810 810 811 812 813 815 808 797 797 798 798 799 800 800 800 801 802 803 804 805 806 806 807 808 808 809 810 812 815 816 818 818 818 820 823 823 822 825 826 827 827 811 797 805 809 803 801 799 800 803 794 780 772 766 768 773 773 772 769 767 763 761 761 760 760 758 755
828 827 827 826 826 825 825 824 823 822 820 819 817 815 813 811 810 809 809 808 807 808 809 810 811 812 814 806 795 797 797 796 798 798 799 799 800 802 803 803 805 805 806 807 807 808 809 810 813 815 817 817 817 819 823 825 823 824 825 823 828 828 813 800 802 803 798 798 801 801 799 793 782 771 765 769 773 773 772 768 766 762 760 759 757 757 755 749
827 827 826 826 826 825 824 823 822 821 820 818 816 814 812 810 809 808 807 806 807 808 808 810 810 812 814 805 796 796 795 795 796 796 797 798 799 801 802 804 805 805 807 807 808 809 809 811 815 818 818 817 818 821 825 829 827 827 827 823 822 822 818 810 798 793 795 798 800 798 792 786 779 769 765 771 772 772 771 767 764 761 757 756 754 752 749 745
827 826 826 826 825 824 824 822 822 820 818 817 814 812 811 810 809 807 807 806 807 808 809 810 810 812 809 800 796 795 794 795 795 795 796 797 799 800 802 804 805 806 807 808 809 810 811 814 818 820 818 820 822 822 829 835 828 824 827 824 822 821 820 816 800 789 793 797 795 796 794 785 775 770 769 769 769 772 770 762 759 757 754 751 748 745 743 742
826 826 825 825 824 824 823 822 821 819 818 816 813 811 810 810 809 808 808 807 808 809 810 810 811 815 807 796 796 795 793 795 794 795 796 796 799 800 801 803 805 806 808 810 811 811 814 817 821 820 820 823 823 825 829 826 815 813 817 818 818 821 821 819 808 793 790 791 792 798 795 784 779 775 772 768 767 770 767 759 754 752 750 746 743 741 739 738
826 826 825 825 824 823 822 822 821 819 817 815 813 811 809 810 809 809 809 809 809 808 809 810 809 811 805 795 795 794 793 795 794 795 795 796 798 800 801 802 805 806 809 813 813 813 815 819 823 823 821 820 818 820 818 808 805 809 814 815 815 816 815 813 806 796 795 794 793 796 786 777 777 774 771 766 764 765 763 756 750 747 745 741 740 738 735 734
826 825 825 824 824 823 822 822 820 819 817 814 812 810 810 813 811 810 810 809 808 805 805 806 803 802 799 794 793 794 794 794 794 795 796 796 797 799 801 803 806 808 810 812 813 815 816 819 823 819 814 811 811 813 810 806 811 816 817 817 817 817 812 805 800 794 798 798 790 788 780 772 773 771 769 765 762 762 757 751 748 744 740 738 738 734 730 729
825 825 825 824 823 823 822 821 820 819 818 815 813 811 815 818 816 815 814 808 803 802 802 800 799 798 794 792 792 793 794 794 794 795 796 797 797 799 802 805 808 810 813 814 814 817 818 820 820 810 805 807 809 811 813 814 816 817 818 818 819 820 810 800 798 793 798 801 790 786 781 774 773 770 766 764 760 753 747 748 747 742 738 734 732 729 725 726
825 825 824 824 823 822 822 821 820 819 818 817 814 815 818 819 818 818 818 812 803 800 800 796 797 796 791 790 793 793 795 795 795 796 796 797 798 800 802 806 809 811 815 816 815 817 821 822 816 807 807 811 812 813 815 816 817 817 820 822 820 819 808 798 798 796 801 802 789 787 782 772 770 765 757 755 752 746 742 745 745 739 736 730 726 726 726 728
824 824 824 824 823 823 821 821 820 819 819 817 817 818 819 818 818 818 819 818 808 798 795 794 795 795 791 791 791 793 796 797 795 795 796 796 799 801 802 805 810 812 814 814 811 814 817 816 809 806 811 813 813 815 816 815 817 817 819 821 817 814 809 802 798 796 802 801 792 792 782 765 761 755 748 748 748 745 742 742 742 738 733 727 726 729 732 735
823 823 823 823 823 822 821 821 820 820 819 818 818 818 818 818 818 818 818 817 810 798 791 791 792 792 790 790 789 791 795 796 795 794 794 794 798 801 801 804 809 812 812 810 808 808 806 805 806 808 811 813 814 816 817 816 814 813 816 819 812 807 808 805 799 799 802 798 796 795 772 750 751 749 742 746 750 747 744 741 736 731 730 728 729 733 738 740
821 822 822 822 822 821 821 821 819 820 819 818 819 818 818 818 817 819 818 815 810 799 790 790 791 790 788 788 789 790 792 794 794 794 794 794 796 799 802 804 806 807 808 809 812 810 805 804 805 806 810 815 816 816 816 815 813 811 812 811 804 801 804 803 803 808 806 797 799 800 777 752 748 748 740 739 744 743 741 736 725 724 731 730 730 736 742 741
820 820 820 821 821 821 821 820 819 820 818 819 819 818 818 817 817 818 818 818 810 794 788 790 790 789 788 789 791 790 791 794 795 795 794 795 795 796 800 804 804 805 807 809 812 811 807 806 805 805 809 814 818 816 812 812 815 813 806 800 800 802 804 805 807 811 806 798 801 804 795 774 751 744 743 740 742 738 730 727 724 729 732 728 732 741 743 740
818 818 819 820 820 821 820 819 819 818 818 819 817 818 818 816 818 817 817 822 809 788 786 791 790 789 788 791 792 790 792 794 795 795 795 795 795 794 798 803 805 806 808 809 809 806 803 805 808 807 809 813 815 811 806 810 814 809 801 797 797 799 802 806 808 810 807 803 805 802 801 795 765 746 747 744 740 734 727 727 729 732 729 728 738 742 739 738
816 817 818 818 819 819 819 819 819 817 818 819 817 819 817 816 818 815 821 828 807 783 786 790 789 789 789 792 792 792 795 796 794 795 795 795 795 795 798 800 801 802 804 807 806 803 801 802 804 805 809 812 807 799 799 806 805 800 804 807 803 803 806 809 807 809 813 809 806 801 799 798 771 747 753 751 740 733 729 729 729 728 725 731 744 742 737 738
815 815 816 817 817 817 818 818 818 817 817 817 818 818 817 817 816 816 830 831 800 781 788 789 788 791 791 793 794 794 796 795 795 795 795 796 795 795 798 799 800 800 801 804 801 800 800 801 803 802 804 801 795 796 798 798 797 800 810 812 810 812 813 815 810 808 813 807 801 800 796 792 765 739 746 751 741 734 727 727 729 726 723 733 746 743 737 738
813 814 814 815 816 816 816 816 816 816 817 817 818 818 817 818 818 826 838 825 798 789 791 788 790 794 794 793 794 796 796 795 797 797 796 797 795 796 799 800 801 800 803 805 802 799 800 805 807 800 795 792 792 803 807 802 801 806 807 803 806 812 812 817 814 809 811 801 793 790 786 789 773 744 740 742 738 735 727 725 727 723 723 737 747 743 739 741
812 813 813 814 814 815 815 815 815 815 816 816 817 817 819 819 822 833 831 810 798 796 790 790 795 795 794 794 793 794 796 796 797 796 795 798 797 798 800 799 800 801 803 803 800 800 801 804 803 793 791 794 794 801 810 812 810 805 802 799 802 807 809 814 814 812 811 795 785 785 784 788 774 748 741 740 737 739 735 731 727 721 722 735 744 742 740 741
812 812 812 813 813 813 815 815 814 815 815 816 818 818 821 826 827 827 817 802 799 795 787 791 796 794 795 796 793 793 796 795 796 795 794 798 799 798 797 794 793 797 800 797 794 794 794 794 795 791 790 793 792 796 806 811 811 806 802 804 808 812 814 813 812 815 810 793 789 795 794 787 764 743 741 738 731 733 734 734 731 728 726 731 740 741 738 740
811 810 811 811 811 812 813 814 814 815 815 816 819 820 825 832 827 816 809 803 798 792 788 791 795 796 797 795 791 793 796 792 793 795 793 797 801 796 793 793 790 790 794 797 796 793 788 787 791 790 786 787 788 792 797 799 806 808 802 803 810 816 819 814 811 815 806 791 796 802 795 783 761 740 736 731 725 727 731 735 734 733 732 733 739 742 740 742
809 809 809 809 810 811 812 814 814 815 816 817 821 824 827 827 818 809 807 801 794 791 790 792 794 796 796 795 792 791 793 790 790 794 794 798 800 793 788 791 793 790 792 798 799 798 794 787 783 781 779 783 785 785 786 790 801 805 797 798 802 801 805 804 799 799 792 787 797 802 790 775 756 739 732 731 729 730 735 739 738 736 739 742 743 743 744 745
808 808 807 807 808 809 810 813 814 815 817 818 822 826 823 815 810 807 804 798 793 791 790 791 792 794 795 795 794 792 791 790 792 795 796 796 794 788 783 784 789 792 794 798 797 798 800 786 776 779 781 782 782 782 785 788 795 800 797 798 796 789 788 791 788 784 786 791 796 794 783 764 747 735 730 731 732 733 735 735 733 735 742 746 745 745 749 750
806 805 805 804 805 807 808 810 813 815 816 818 824 822 812 805 804 802 798 794 793 791 791 793 793 795 796 792 793 795 792 792 795 795 795 796 792 789 785 780 784 787 786 790 789 790 795 783 774 783 785 780 780 781 782 783 786 796 800 793 789 787 784 786 789 785 792 798 786 778 775 762 748 736 726 728 731 731 733 731 729 733 741 746 747 751 756 757
804 803 802 801 802 804 806 808 811 813 815 819 820 811 802 799 796 794 793 793 793 791 794 799 795 792 794 791 792 796 793 793 796 793 793 795 788 784 783 779 781 782 776 779 781 779 784 779 772 776 777 779 787 785 781 783 783 789 793 784 783 789 786 788 796 794 796 797 780 769 769 763 758 746 729 728 731 729 731 731 730 735 743 749 752 756 761 763
802 801 800 798 799 801 804 807 809 812 815 817 812 803 798 796 791 790 791 792 793 792 796 801 795 789 791 792 790 793 794 794 796 794 792 791 783 777 777 774 776 780 775 776 780 778 782 782 773 770 771 778 789 787 782 785 784 782 783 780 782 787 785 788 796 795 794 794 782 773 767 763 760 747 730 728 730 731 734 734 736 742 750 755 758 762 765 766
801 801 799 795 796 799 802 806 808 811 813 810 805 800 795 792 789 789 790 790 792 794 797 798 795 791 791 791 791 792 794 794 794 793 790 787 781 773 772 771 773 780 780 777 779 779 781 784 776 772 776 779 782 784 781 781 784 785 784 783 783 784 783 784 788 788 789 788 781 774 767 758 748 735 727 728 729 734 739 741 747 757 763 767 769 769 770 770
800 799 797 794 795 797 801 805 807 809 807 801 797 795 792 790 790 788 789 790 790 792 795 794 794 794 790 789 790 790 793 793 791 792 789 784 779 772 770 771 771 778 782 781 781 781 783 785 780 775 780 780 775 774 773 770 774 781 783 782 783 783 783 784 782 779 779 780 776 771 764 751 736 726 726 730 735 743 748 750 761 772 775 776 777 775 774 774
800 799 796 794 795 796 800 805 805 804 801 796 793 792 790 789 789 788 789 790 789 789 791 792 792 793 792 792 792 790 794 793 789 791 789 784 781 777 772 769 768 774 781 782 782 783 783 784 781 776 777 775 766 763 764 762 763 770 772 773 774 775 781 788 782 771 770 772 769 767 761 746 732 727 727 732 745 759 761 760 769 777 779 778 777 777 776 775
799 798 795 795 796 796 799 802 800 799 799 795 791 790 790 789 788 788 789 791 792 791 790 792 792 792 793 793 792 792 793 793 790 790 788 783 780 777 772 771 770 771 775 778 778 778 780 783 783 777 771 768 763 761 765 765 764 767 769 768 769 770 774 781 777 767 767 768 764 764 762 746 731 727 729 739 758 770 771 769 773 776 777 777 776 775 774 772
799 797 795 795 796 797 798 799 797 797 797 792 789 789 790 790 790 789 789 791 793 792 792 792 792 792 791 789 790 791 791 792 788 784 784 782 778 779 779 778 777 775 777 779 778 777 780 781 781 776 769 766 763 762 768 772 771 770 769 767 769 768 764 767 769 767 769 768 764 766 761 745 733 731 741 757 768 773 775 775 776 776 776 776 775 773 772 770
802 800 797 795 796 797 797 795 794 795 795 792 791 790 789 790 790 789 790 791 790 792 795 794 791 791 791 790 791 792 793 794 789 783 785 785 781 785 787 783 781 782 785 788 785 784 785 780 777 779 777 774 770 766 768 774 774 772 769 766 767 766 765 766 769 773 774 767 762 764 756 742 736 738 750 766 770 772 777 779 779 779 778 777 775 773 772 769
803 801 799 796 795 796 796 793 793 795 794 793 793 792 791 790 787 786 790 791 789 792 794 794 793 793 794 795 796 795 795 796 794 790 790 790 787 787 789 788 787 786 790 792 789 789 791 786 781 783 780 775 772 767 766 773 777 776 772 769 770 771 771 773 774 775 770 759 755 758 752 742 738 738 747 761 770 775 779 780 780 781 780 778 777 776 773 771
802 798 798 798 797 797 798 797 797 795 794 796 794 791 792 791 786 785 788 788 787 789 791 792 794 796 797 797 797 795 792 793 795 793 790 789 786 786 791 793 791 791 792 791 788 788 793 792 787 784 780 775 772 769 769 777 781 778 774 773 775 775 775 779 779 772 765 758 754 751 746 744 743 742 746 756 766 775 779 781 782 781 780 780 778 777 776 774
802 798 798 799 797 797 798 798 800 798 797 798 795 790 789 790 788 787 787 788 789 789 789 790 792 794 795 794 794 793 789 787 791 792 791 789 787 788 793 794 794 795 793 792 792 792 793 790 783 780 780 777 774 774 776 781 783 780 778 778 776 776 777 779 777 768 764 764 757 747 748 754 753 748 750 757 765 774 780 781 781 781 781 780 778 776 775 774
802 800 801 801 800 800 799 800 803 803 800 801 799 794 790 791 791 790 789 790 790 790 791 792 790 790 791 791 792 794 791 789 790 790 789 791 791 790 790 792 796 798 794 793 794 792 794 791 780 778 780 776 776 778 779 783 784 781 781 779 777 777 776 774 771 766 766 768 759 751 754 756 749 748 758 767 771 775 779 779 779 780 780 779 778 776 774 773
804 804 805 804 805 806 806 806 807 806 803 803 802 798 794 795 795 792 791 793 792 791 791 792 793 796 798 797 797 797 796 795 792 789 789 793 796 796 793 791 796 799 798 797 794 792 797 794 785 785 787 783 781 781 781 785 785 782 781 780 778 776 771 770 769 764 765 764 757 755 755 749 747 755 767 774 776 775 777 778 777 778 778 777 777 775 774 773
806 807 807 808 809 811 812 810 809 809 807 805 803 799 796 797 796 795 795 797 797 794 793 797 802 807 808 806 804 802 801 801 798 795 798 800 799 802 802 797 797 801 801 800 797 795 797 794 787 789 793 788 783 782 782 785 786 785 784 781 777 774 771 771 768 762 762 759 753 754 751 746 756 771 773 774 776 776 776 777 776 776 776 775 774 773 773 773
807 807 808 810 809 809 812 813 812 812 809 807 804 800 797 798 800 801 801 800 801 801 803 808 812 812 811 809 808 808 808 810 809 807 809 809 805 806 807 803 804 807 804 800 799 797 799 798 793 796 801 793 783 784 786 786 787 789 787 781 774 770 768 765 760 756 755 754 752 752 748 749 765 777 775 773 776 776 775 775 774 774 774 773 772 771 771 771
807 807 808 810 810 809 812 815 814 812 808 806 805 803 803 805 806 805 803 803 805 807 809 813 812 811 812 810 809 810 811 811 812 811 811 810 808 808 807 805 806 809 806 803 802 800 801 803 802 804 805 795 786 788 791 794 797 789 776 768 762 760 760 758 754 752 751 753 754 752 752 761 773 777 774 773 775 774 773 771 770 771 771 771 770 769 768 767